| time (UTC) | temp F | wind direction | speed MPH | gust MPH | rain 1hr in | rain 24hr in | rain mn in | humidity % | barometer mb |
| 20260509033014 | 59 | 199 | 2.0 | 5.0 | 0.00 | 0.01 | 0.01 | 53 | 1005.5 |
| 20260509031513 | 58 | 212 | 5.0 | 7.0 | 0.00 | 0.01 | 0.01 | 54 | 1005.5 |
| 20260509030023 | 59 | 176 | 3.0 | 5.0 | 0.00 | 0.01 | 0.01 | 54 | 1005.5 |
| 20260509024514 | 60 | 176 | 3.0 | 6.0 | 0.00 | 0.01 | 0.01 | 54 | 1005.4 |
| 20260509023012 | 61 | 145 | 2.0 | 4.0 | 0.00 | 0.01 | 0.01 | 50 | 1005.3 |
| 20260509021512 | 62 | 145 | 2.0 | 4.0 | 0.00 | 0.01 | 0.01 | 46 | 1005.1 |
| 20260509020011 | 64 | 145 | 2.0 | 5.0 | 0.00 | 0.01 | 0.01 | 44 | 1005.1 |
| 20260509014510 | 65 | 145 | 3.0 | 5.0 | 0.00 | 0.01 | 0.01 | 43 | 1005.0 |
| 20260509013008 | 66 | 146 | 2.0 | 6.0 | 0.00 | 0.01 | 0.01 | 39 | 1004.8 |
| 20260509011509 | 67 | 152 | 2.0 | 6.0 | 0.00 | 0.01 | 0.01 | 38 | 1004.9 |
| 20260509010008 | 68 | 165 | 3.0 | 7.0 | 0.00 | 0.01 | 0.01 | 37 | 1004.9 |
| 20260509004507 | 70 | 145 | 1.0 | 8.0 | 0.00 | 0.01 | 0.01 | 36 | 1004.7 |
| 20260509003009 | 70 | 121 | 3.0 | 10.0 | 0.00 | 0.01 | 0.01 | 35 | 1004.9 |
| 20260509001505 | 70 | 119 | 1.0 | 6.0 | 0.00 | 0.01 | 0.01 | 34 | 1004.9 |
| 20260509000003 | 71 | 119 | 2.0 | 7.0 | 0.00 | 0.01 | 0.01 | 35 | 1005.0 |
| 20260508234501 | 70 | 119 | 3.0 | 6.0 | 0.00 | 0.01 | 0.01 | 35 | 1005.0 |
| 20260508233100 | 71 | 144 | 5.0 | 11.0 | 0.00 | 0.01 | 0.01 | 35 | 1005.0 |
| 20260508231558 | 70 | 99 | 2.0 | 12.0 | 0.00 | 0.01 | 0.01 | 35 | 1005.0 |
| 20260508230056 | 70 | 157 | 3.0 | 9.0 | 0.00 | 0.01 | 0.01 | 35 | 1005.1 |
| 20260508224633 | 70 | 130 | 1.0 | 15.0 | 0.00 | 0.01 | 0.01 | 35 | 1005.1 |
| 20260508223055 | 71 | 129 | 1.0 | 5.0 | 0.00 | 0.01 | 0.01 | 33 | 1005.2 |
| 20260508221551 | 72 | 97 | 1.0 | 6.0 | 0.00 | 0.01 | 0.01 | 34 | 1005.4 |
| 20260508220053 | 72 | 278 | 2.0 | 5.0 | 0.00 | 0.01 | 0.01 | 34 | 1005.6 |
| 20260508214547 | 72 | 109 | 3.0 | 8.0 | 0.00 | 0.01 | 0.01 | 35 | 1005.7 |
| 20260508213044 | 72 | 129 | 2.0 | 5.0 | 0.00 | 0.01 | 0.01 | 34 | 1005.8 |
| 20260508211543 | 71 | 123 | 1.0 | 13.0 | 0.00 | 0.01 | 0.01 | 36 | 1006.0 |
| 20260508210044 | 70 | 151 | 3.0 | 12.0 | 0.00 | 0.01 | 0.01 | 35 | 1006.2 |
| 20260508204538 | 70 | 32 | 2.0 | 10.0 | 0.00 | 0.01 | 0.01 | 38 | 1006.3 |
| 20260508203041 | 69 | 105 | 2.0 | 7.0 | 0.00 | 0.01 | 0.01 | 38 | 1006.3 |
| 20260508201533 | 69 | 112 | 1.0 | 9.0 | 0.00 | 0.01 | 0.01 | 39 | 1006.6 |
| 20260508200034 | 68 | 123 | 1.0 | 9.0 | 0.00 | 0.01 | 0.01 | 41 | 1006.8 |
| 20260508194535 | 69 | 122 | 5.0 | 10.0 | 0.00 | 0.01 | 0.01 | 43 | 1006.8 |
| 20260508193025 | 70 | 130 | 4.0 | 6.0 | 0.00 | 0.01 | 0.01 | 39 | 1007.1 |
| 20260508191525 | 69 | 186 | 2.0 | 10.0 | 0.00 | 0.01 | 0.01 | 44 | 1007.4 |
| 20260508190022 | 68 | 119 | 1.0 | 4.0 | 0.00 | 0.01 | 0.01 | 43 | 1007.6 |
| 20260508184521 | 66 | 307 | 3.0 | 8.0 | 0.00 | 0.01 | 0.01 | 44 | 1007.8 |
| 20260508183025 | 66 | 5 | 1.0 | 5.0 | 0.00 | 0.01 | 0.01 | 45 | 1007.9 |
| 20260508181515 | 65 | 254 | 1.0 | 4.0 | 0.00 | 0.01 | 0.01 | 47 | 1008.1 |
| 20260508180011 | 63 | 12 | 1.0 | 6.0 | 0.00 | 0.01 | 0.01 | 47 | 1008.5 |
| 20260508174507 | 63 | 229 | 2.0 | 5.0 | 0.00 | 0.01 | 0.01 | 49 | 1008.7 |
| 20260508173007 | 62 | 212 | 2.0 | 5.0 | 0.00 | 0.01 | 0.01 | 50 | 1009.0 |
| 20260508171509 | 63 | 199 | 2.0 | 6.0 | 0.00 | 0.01 | 0.01 | 51 | 1009.1 |
| 20260508170100 | 61 | 240 | 2.0 | 6.0 | 0.00 | 0.01 | 0.01 | 53 | 1009.3 |
| 20260508164558 | 60 | 215 | 2.0 | 4.0 | 0.00 | 0.01 | 0.01 | 53 | 1009.5 |
| 20260508163058 | 60 | 271 | 2.0 | 5.0 | 0.00 | 0.01 | 0.01 | 54 | 1009.6 |
| 20260508161559 | 59 | 123 | 4.0 | 7.0 | 0.00 | 0.01 | 0.01 | 54 | 1009.7 |
| 20260508160050 | 57 | 140 | 2.0 | 5.0 | 0.00 | 0.01 | 0.01 | 59 | 1009.8 |
| 20260508154608 | 57 | 134 | 1.0 | 6.0 | 0.00 | 0.01 | 0.01 | 60 | 1009.8 |
| 20260508153047 | 56 | 98 | 1.0 | 7.0 | 0.00 | 0.01 | 0.01 | 64 | 1009.9 |
| 20260508151543 | 54 | 68 | 1.0 | 5.0 | 0.00 | 0.01 | 0.01 | 69 | 1010.0 |
| 20260508150054 | 52 | 128 | 0.0 | 3.0 | 0.00 | 0.01 | 0.01 | 71 | 1009.8 |
| 20260508144538 | 52 | 128 | 1.0 | 4.0 | 0.00 | 0.01 | 0.01 | 74 | 1009.8 |
| 20260508143049 | 51 | 133 | 3.0 | 8.0 | 0.00 | 0.01 | 0.01 | 74 | 1009.8 |
| 20260508141536 | 50 | 143 | 4.0 | 10.0 | 0.00 | 0.01 | 0.01 | 74 | 1009.7 |
| 20260508140135 | 49 | 208 | 5.0 | 10.0 | 0.00 | 0.01 | 0.01 | 75 | 1009.4 |
| 20260508134647 | 49 | 220 | 7.0 | 11.0 | 0.00 | 0.01 | 0.01 | 73 | 1009.4 |
| 20260508133101 | 49 | 179 | 7.0 | 11.0 | 0.00 | 0.01 | 0.01 | 73 | 1009.6 |
| 20260508131550 | 49 | 318 | 4.0 | 9.0 | 0.00 | 0.01 | 0.01 | 70 | 1009.1 |
| 20260508130048 | 48 | 295 | 4.0 | 9.0 | 0.00 | 0.01 | 0.01 | 72 | 1009.0 |
| 20260508124548 | 48 | 314 | 6.0 | 9.0 | 0.00 | 0.01 | 0.01 | 74 | 1008.9 |
| 20260508123047 | 47 | 261 | 5.0 | 10.0 | 0.01 | 0.01 | 0.01 | 76 | 1009.1 |
| 20260508121546 | 47 | 299 | 4.0 | 11.0 | 0.01 | 0.01 | 0.01 | 77 | 1009.4 |
| 20260508120045 | 47 | 331 | 9.0 | 19.0 | 0.01 | 0.01 | 0.01 | 76 | 1009.9 |
| 20260508114540 | 48 | 342 | 15.0 | 22.0 | 0.01 | 0.01 | 0.01 | 76 | 1010.4 |
| 20260508113037 | 46 | 272 | 5.0 | 6.0 | 0.00 | 0.00 | 0.00 | 82 | 1010.1 |
| 20260508111534 | 46 | 259 | 3.0 | 6.0 | 0.00 | 0.00 | 0.00 | 82 | 1009.5 |
| 20260508110033 | 45 | 259 | 1.0 | 4.0 | 0.00 | 0.00 | 0.00 | 83 | 1008.8 |
| 20260508104536 | 45 | 21 | 0.0 | 3.0 | 0.00 | 0.00 | 0.00 | 84 | 1008.9 |
| 20260508103031 | 45 | 21 | 0.0 | 2.0 | 0.00 | 0.00 | 0.00 | 84 | 1008.6 |
| 20260508101535 | 45 | 21 | 0.0 | 0.0 | 0.00 | 0.00 | 0.00 | 84 | 1008.6 |
| 20260508100035 | 45 | 21 | 2.0 | 5.0 | 0.00 | 0.00 | 0.00 | 85 | 1008.7 |
| 20260508094528 | 45 | 29 | 1.0 | 4.0 | 0.00 | 0.00 | 0.00 | 85 | 1008.7 |
| 20260508093034 | 45 | 29 | 4.0 | 8.0 | 0.00 | 0.00 | 0.00 | 85 | 1008.9 |
| 20260508091525 | 45 | 43 | 7.0 | 10.0 | 0.00 | 0.00 | 0.00 | 86 | 1008.6 |
| 20260508090024 | 45 | 195 | 0.0 | 1.0 | 0.00 | 0.00 | 0.00 | 84 | 1007.9 |
| 20260508084519 | 45 | 195 | 1.0 | 3.0 | 0.00 | 0.00 | 0.00 | 83 | 1007.9 |
| 20260508083016 | 46 | 195 | 2.0 | 4.0 | 0.00 | 0.00 | 0.00 | 82 | 1008.0 |
| 20260508081516 | 46 | 195 | 0.0 | 6.0 | 0.00 | 0.00 | 0.00 | 82 | 1008.2 |
| 20260508080028 | 46 | 27 | 2.0 | 4.0 | 0.00 | 0.00 | 0.00 | 81 | 1008.5 |
| 20260508074508 | 47 | 27 | 0.0 | 2.0 | 0.00 | 0.00 | 0.00 | 81 | 1008.9 |
| 20260508073006 | 47 | 27 | 3.0 | 5.0 | 0.00 | 0.00 | 0.00 | 81 | 1009.2 |
| 20260508071504 | 47 | 27 | 4.0 | 5.0 | 0.00 | 0.00 | 0.00 | 78 | 1009.5 |
| 20260508070104 | 48 | 32 | 5.0 | 9.0 | 0.00 | 0.00 | 0.00 | 77 | 1009.5 |
| 20260508064600 | 49 | 10 | 5.0 | 8.0 | 0.00 | 0.00 | 0.00 | 76 | 1009.4 |
| 20260508063054 | 50 | 51 | 4.0 | 5.0 | 0.00 | 0.00 | 0.00 | 74 | 1009.3 |
| 20260508061549 | 51 | 51 | 3.0 | 5.0 | 0.00 | 0.00 | 0.00 | 72 | 1009.3 |
| 20260508060046 | 52 | 17 | 5.0 | 10.0 | 0.00 | 0.00 | 0.00 | 69 | 1009.2 |
| 20260508054549 | 53 | 47 | 6.0 | 11.0 | 0.00 | 0.00 | 0.00 | 67 | 1009.4 |
| 20260508053053 | 53 | 55 | 0.0 | 7.0 | 0.00 | 0.00 | 0.00 | 68 | 1009.3 |
| 20260508051549 | 53 | 141 | 2.0 | 8.0 | 0.00 | 0.00 | 0.00 | 64 | 1009.0 |
| 20260508050054 | 53 | 51 | 8.0 | 11.0 | 0.00 | 0.00 | 0.00 | 71 | 1009.4 |
| 20260508044547 | 53 | 223 | 6.0 | 10.0 | 0.00 | 0.00 | 0.00 | 67 | 1008.4 |
| 20260508043043 | 53 | 183 | 4.0 | 6.0 | 0.00 | 0.00 | 0.00 | 69 | 1008.2 |
| 20260508041542 | 53 | 254 | 2.0 | 4.0 | 0.00 | 0.00 | 0.00 | 67 | 1007.9 |
| 20260508040052 | 55 | 254 | 3.0 | 5.0 | 0.00 | 0.00 | 0.00 | 59 | 1008.3 |
| 20260508034545 | 56 | 250 | 9.0 | 24.0 | 0.00 | 0.00 | 0.00 | 56 | 1008.5 |